,,PA_Meas_PMT16A,,PR_Meas_QMR101_102,,RH_Meas_QMH101,,SR_Meas_QMS101,,TA_Meas_QMH101,,GenWind,,GenWind,
time,status,PA,status,PR,status,RH,status,SR,status,TA,status,DirAvg,status,SpdAvg,
2013-01-31, 00:00:04,VALID,920.205,VALID,0,VALID,95.4604,VALID,0,VALID,19.5678,VALID,181,VALID,0,
2013-01-31, 00:01:04,VALID,920.182,VALID,0,VALID,95.4833,VALID,0,VALID,19.5678,VALID,157,VALID,0,
2013-01-31, 00:02:04,VALID,920.19,VALID,0,VALID,95.4985,VALID,0,VALID,19.5483,VALID,157,VALID,0,
2013-01-31, 00:03:04,VALID,920.202,VALID,0,VALID,95.5443,VALID,0,VALID,19.5483,VALID,171,VALID,0,
2013-01-31, 00:04:04,VALID,920.161,VALID,0,VALID,95.529,VALID,0,VALID,19.5078,VALID,166,VALID,0,
2013-01-31, 00:05:04,VALID,920.143,VALID,0,VALID,95.5443,VALID,0,VALID,19.4883,VALID,166,VALID,0,
2013-01-31, 00:06:04,VALID,920.118,VALID,0,VALID,95.5824,VALID,0,VALID,19.5288,VALID,166,VALID,0,
2013-01-31, 00:07:04,VALID,920.085,VALID,0,VALID,95.6053,VALID,0,VALID,19.4883,VALID,166,VALID,0,
2013-01-31, 00:08:04,VALID,920.114,VALID,0,VALID,95.6434,VALID,0,VALID,19.4883,VALID,166,VALID,0,
2013-01-31, 00:09:04,VALID,920.096,VALID,0,VALID,95.6357,VALID,0,VALID,19.4883,VALID,166,VALID,0,
2013-01-31, 00:10:04,VALID,920.064,VALID,0,VALID,95.6815,VALID,0,VALID,19.4898,VALID,166,VALID,0,
2013-01-31, 00:11:04,VALID,920.062,VALID,0,VALID,95.7272,VALID,0.107441,VALID,19.4883,VALID,166,VALID,0,
2013-01-31, 00:12:04,VALID,920.026,VALID,0,VALID,95.7501,VALID,0,VALID,19.5093,VALID,166,VALID,0,
2013-01-31, 00:13:04,VALID,920.012,VALID,0,VALID,95.7882,VALID,0,VALID,19.4883,VALID,166,VALID,0,
2013-01-31, 00:14:04,VALID,920.021,VALID,0,VALID,95.7806,VALID,0,VALID,19.5093,VALID,166,VALID,0,
2013-01-31, 00:15:04,VALID,920.013,VALID,0,VALID,95.7882,VALID,0,VALID,19.4898,VALID,166,VALID,0,
2013-01-31, 00:16:04,VALID,919.997,VALID,0,VALID,95.7958,VALID,0,VALID,19.4703,VALID,166,VALID,0,
2013-01-31, 00:17:04,VALID,920.007,VALID,0,VALID,95.7958,VALID,0,VALID,19.4703,VALID,166,VALID,0,
2013-01-31, 00:18:04,VALID,920.009,VALID,0,VALID,95.8187,VALID,0,VALID,19.4508,VALID,166,VALID,0,
2013-01-31, 00:19:04,VALID,919.966,VALID,0,VALID,95.8873,VALID,0.107441,VALID,19.4298,VALID,166,VALID,0,
2013-01-31, 00:20:04,VALID,919.974,VALID,0,VALID,95.9483,VALID,0,VALID,19.4508,VALID,166,VALID,0,
2013-01-31, 00:21:04,VALID,919.961,VALID,0,VALID,96.0017,VALID,0,VALID,19.4493,VALID,166,VALID,0,
2013-01-31, 00:22:04,VALID,919.939,VALID,0,VALID,95.9941,VALID,0,VALID,19.4508,VALID,166,VALID,0,
2013-01-31, 00:23:04,VALID,919.971,VALID,0,VALID,96.0093,VALID,0,VALID,19.4103,VALID,166,VALID,0,
2013-01-31, 00:24:05,VALID,919.925,VALID,0,VALID,96.0779,VALID,0.107441,VALID,19.4298,VALID,166,VALID,0,
2013-01-31, 00:25:05,VALID,919.941,VALID,0,VALID,96.1313,VALID,0,VALID,19.4298,VALID,235,VALID,0,
2013-01-31, 00:26:05,VALID,919.918,VALID,0,VALID,96.1694,VALID,0,VALID,19.4508,VALID,195,VALID,0,
2013-01-31, 00:27:05,VALID,919.91,VALID,0,VALID,96.1923,VALID,0,VALID,19.4508,VALID,238,VALID,0,
2013-01-31, 00:28:05,VALID,919.921,VALID,0,VALID,96.1999,VALID,0,VALID,19.4103,VALID,238,VALID,0,
2013-01-31, 00:29:05,VALID,919.905,VALID,0,VALID,96.2228,VALID,0,VALID,19.4103,VALID,238,VALID,0,
2013-01-31, 00:30:05,VALID,919.861,VALID,0,VALID,96.2304,VALID,0,VALID,19.4313,VALID,239,VALID,0,
2013-01-31, 00:31:05,VALID,919.859,VALID,0,VALID,96.1999,VALID,0,VALID,19.3713,VALID,239,VALID,0,
2013-01-31, 00:32:05,VALID,919.86,VALID,0,VALID,96.1236,VALID,0,VALID,19.3533,VALID,238,VALID,0,
2013-01-31, 00:33:05,VALID,919.892,VALID,0,VALID,96.1313,VALID,0,VALID,19.2753,VALID,238,VALID,0,
2013-01-31, 00:34:05,VALID,919.91,VALID,0,VALID,96.1236,VALID,0,VALID,19.2558,VALID,238,VALID,0,
2013-01-31, 00:35:05,VALID,919.91,VALID,0,VALID,96.1313,VALID,0,VALID,19.1958,VALID,238,VALID,0,
2013-01-31, 00:36:05,VALID,919.878,VALID,0,VALID,96.2533,VALID,0,VALID,19.1973,VALID,238,VALID,0,
2013-01-31, 00:37:05,VALID,919.873,VALID,0,VALID,96.2151,VALID,0,VALID,19.1583,VALID,238,VALID,0,
2013-01-31, 00:38:05,VALID,919.85,VALID,0,VALID,96.2456,VALID,0,VALID,19.1178,VALID,238,VALID,0,
2013-01-31, 00:39:05,VALID,919.842,VALID,0,VALID,96.2075,VALID,0,VALID,19.0788,VALID,238,VALID,0,
2013-01-31, 00:40:05,VALID,919.853,VALID,0,VALID,96.3447,VALID,0,VALID,19.0983,VALID,239,VALID,0,
2013-01-31, 00:41:05,VALID,919.782,VALID,0,VALID,96.4362,VALID,0,VALID,19.1583,VALID,235,VALID,0,
2013-01-31, 00:42:05,VALID,919.806,VALID,0,VALID,96.4515,VALID,0,VALID,19.1568,VALID,235,VALID,0,
2013-01-31, 00:43:05,VALID,919.818,VALID,0,VALID,96.4667,VALID,0,VALID,19.1583,VALID,235,VALID,0,
2013-01-31, 00:44:05,VALID,919.794,VALID,0,VALID,96.4667,VALID,0,VALID,19.1388,VALID,235,VALID,0,
2013-01-31, 00:45:05,VALID,919.767,VALID,0,VALID,96.4438,VALID,0,VALID,19.1193,VALID,235,VALID,0,
2013-01-31, 00:46:05,VALID,919.752,VALID,0,VALID,96.3829,VALID,0,VALID,19.0398,VALID,235,VALID,0,
2013-01-31, 00:47:05,VALID,919.737,VALID,0,VALID,96.2914,VALID,0,VALID,19.0023,VALID,235,VALID,0,
2013-01-31, 00:48:05,VALID,919.715,VALID,0,VALID,96.299,VALID,0,VALID,18.9828,VALID,235,VALID,0,
2013-01-31, 00:49:05,VALID,919.69,VALID,0,VALID,96.3524,VALID,0,VALID,18.9828,VALID,235,VALID,0,
2013-01-31, 00:50:05,VALID,919.67,VALID,0,VALID,96.4133,VALID,0,VALID,18.9438,VALID,235,VALID,0,
2013-01-31, 00:51:05,VALID,919.665,VALID,0,VALID,96.4591,VALID,0,VALID,18.9828,VALID,235,VALID,0,
2013-01-31, 00:52:05,VALID,919.621,VALID,0,VALID,96.4972,VALID,0,VALID,19.0218,VALID,235,VALID,0,
2013-01-31, 00:53:05,VALID,919.614,VALID,0,VALID,96.5734,VALID,0,VALID,19.0398,VALID,235,VALID,0,
2013-01-31, 00:54:05,VALID,919.551,VALID,0,VALID,96.6115,VALID,0,VALID,19.1178,VALID,151,VALID,0,
2013-01-31, 00:55:05,VALID,919.534,VALID,0,VALID,96.6497,VALID,0,VALID,19.1583,VALID,147,VALID,0,
2013-01-31, 00:56:05,VALID,919.535,VALID,0,VALID,96.6802,VALID,0,VALID,19.1193,VALID,147,VALID,0,
2013-01-31, 00:57:05,VALID,919.517,VALID,0,VALID,96.6649,VALID,0,VALID,19.0983,VALID,147,VALID,0,
2013-01-31, 00:58:05,VALID,919.513,VALID,0,VALID,96.6573,VALID,0,VALID,19.0998,VALID,147,VALID,0,
2013-01-31, 00:59:05,VALID,919.529,VALID,0,VALID,96.6115,VALID,0,VALID,19.0218,VALID,147,VALID,0,
2013-01-31, 01:00:05,VALID,919.507,VALID,0,VALID,96.5811,VALID,0,VALID,18.9828,VALID,147,VALID,0,
2013-01-31, 01:01:05,VALID,919.515,VALID,0,VALID,96.6268,VALID,0.107441,VALID,19.0218,VALID,147,VALID,0,
2013-01-31, 01:02:05,VALID,919.505,VALID,0,VALID,96.6497,VALID,0,VALID,19.0203,VALID,147,VALID,0,
2013-01-31, 01:03:05,VALID,919.502,VALID,0,VALID,96.6954,VALID,0,VALID,19.0413,VALID,147,VALID,0,
2013-01-31, 01:04:05,VALID,919.48,VALID,0,VALID,96.7411,VALID,0,VALID,19.0803,VALID,154,VALID,0,
2013-01-31, 01:05:05,VALID,919.495,VALID,0,VALID,96.7411,VALID,0,VALID,19.0608,VALID,154,VALID,0,
2013-01-31, 01:06:05,VALID,919.492,VALID,0,VALID,96.7488,VALID,0,VALID,19.0413,VALID,154,VALID,0,
2013-01-31, 01:07:05,VALID,919.494,VALID,0,VALID,96.7564,VALID,0,VALID,19.0008,VALID,154,VALID,0,
2013-01-31, 01:08:05,VALID,919.462,VALID,0,VALID,96.7564,VALID,0,VALID,19.0413,VALID,154,VALID,0,
2013-01-31, 01:09:05,VALID,919.468,VALID,0,VALID,96.7945,VALID,0,VALID,19.0608,VALID,154,VALID,0,
2013-01-31, 01:10:05,VALID,919.488,VALID,0,VALID,96.8098,VALID,0,VALID,19.0608,VALID,162,VALID,0,
2013-01-31, 01:11:05,VALID,919.47,VALID,0,VALID,96.8098,VALID,0,VALID,19.0218,VALID,167,VALID,0,
2013-01-31, 01:12:05,VALID,919.466,VALID,0,VALID,96.7945,VALID,0,VALID,19.0023,VALID,150,VALID,0,
2013-01-31, 01:13:05,VALID,919.459,VALID,0,VALID,96.8098,VALID,0,VALID,19.0023,VALID,150,VALID,0,
2013-01-31, 01:14:05,VALID,919.487,VALID,0,VALID,96.825,VALID,0,VALID,19.0218,VALID,167,VALID,0,
2013-01-31, 01:15:05,VALID,919.497,VALID,0,VALID,96.8555,VALID,0,VALID,19.0413,VALID,172,VALID,0,
2013-01-31, 01:16:05,VALID,919.485,VALID,0,VALID,96.8707,VALID,0,VALID,19.0413,VALID,163,VALID,0,
2013-01-31, 01:17:05,VALID,919.521,VALID,0,VALID,96.8784,VALID,0,VALID,19.0203,VALID,171,VALID,0,
2013-01-31, 01:18:05,VALID,919.54,VALID,0,VALID,96.8936,VALID,0,VALID,19.0608,VALID,156,VALID,0,
2013-01-31, 01:19:05,VALID,919.518,VALID,0,VALID,96.9089,VALID,0,VALID,19.0803,VALID,159,VALID,0,
2013-01-31, 01:20:05,VALID,919.532,VALID,0,VALID,96.9089,VALID,0,VALID,19.0803,VALID,158,VALID,0,
2013-01-31, 01:21:05,VALID,919.528,VALID,0,VALID,96.9012,VALID,0,VALID,19.0803,VALID,158,VALID,0,
2013-01-31, 01:22:05,VALID,919.55,VALID,0,VALID,96.9012,VALID,0,VALID,19.0803,VALID,147,VALID,0,
2013-01-31, 01:23:05,VALID,919.531,VALID,0,VALID,96.9165,VALID,0,VALID,19.0413,VALID,160,VALID,0,
2013-01-31, 01:24:05,VALID,919.506,VALID,0,VALID,96.9165,VALID,0,VALID,19.0413,VALID,162,VALID,0,
2013-01-31, 01:25:05,VALID,919.51,VALID,0,VALID,96.9317,VALID,0,VALID,19.0413,VALID,168,VALID,0,
2013-01-31, 01:26:05,VALID,919.503,VALID,0,VALID,96.947,VALID,0,VALID,19.0398,VALID,158,VALID,0,
2013-01-31, 01:27:05,VALID,919.516,VALID,0,VALID,96.9546,VALID,0,VALID,19.0413,VALID,171,VALID,0,
2013-01-31, 01:28:05,VALID,919.486,VALID,0,VALID,96.9546,VALID,0,VALID,19.0203,VALID,156,VALID,0,
2013-01-31, 01:29:05,VALID,919.503,VALID,0,VALID,96.9851,VALID,0,VALID,19.0608,VALID,162,VALID,0,
2013-01-31, 01:30:05,VALID,919.492,VALID,0,VALID,96.9851,VALID,0,VALID,19.0608,VALID,169,VALID,0,
2013-01-31, 01:31:05,VALID,919.456,VALID,0,VALID,96.9927,VALID,0,VALID,19.0608,VALID,131,VALID,0,
2013-01-31, 01:32:05,VALID,919.479,VALID,0,VALID,96.9851,VALID,0,VALID,19.0413,VALID,159,VALID,0,
2013-01-31, 01:33:05,VALID,919.472,VALID,0,VALID,96.9851,VALID,0,VALID,19.0218,VALID,159,VALID,0,
2013-01-31, 01:34:05,VALID,919.434,VALID,0,VALID,97.0003,VALID,0,VALID,19.0023,VALID,167,VALID,0,
2013-01-31, 01:35:05,VALID,919.448,VALID,0,VALID,97.0156,VALID,0,VALID,19.0023,VALID,146,VALID,0,
2013-01-31, 01:36:05,VALID,919.442,VALID,0,VALID,97.008,VALID,0.107441,VALID,18.9828,VALID,164,VALID,0,
2013-01-31, 01:37:05,VALID,919.44,VALID,0,VALID,97.0232,VALID,0,VALID,18.9828,VALID,170,VALID,0,
2013-01-31, 01:38:05,VALID,919.478,VALID,0,VALID,97.0156,VALID,0,VALID,18.9828,VALID,173,VALID,0,
2013-01-31, 01:39:05,VALID,919.48,VALID,0,VALID,97.0308,VALID,0,VALID,19.0218,VALID,161,VALID,0,
2013-01-31, 01:40:05,VALID,919.474,VALID,0,VALID,97.0385,VALID,0,VALID,19.0413,VALID,173,VALID,0,
2013-01-31, 01:41:05,VALID,919.496,VALID,0,VALID,97.069,VALID,0,VALID,19.0203,VALID,173,VALID,0,
2013-01-31, 01:42:05,VALID,919.485,VALID,0,VALID,97.069,VALID,0,VALID,19.0413,VALID,172,VALID,0,
2013-01-31, 01:43:05,VALID,919.45,VALID,0,VALID,97.0537,VALID,0,VALID,19.0413,VALID,146,VALID,0,
2013-01-31, 01:44:05,VALID,919.464,VALID,0,VALID,97.069,VALID,0,VALID,19.0803,VALID,166,VALID,0,
2013-01-31, 01:45:05,VALID,919.432,VALID,0,VALID,97.0842,VALID,0,VALID,19.1388,VALID,151,VALID,0,
2013-01-31, 01:46:05,VALID,919.425,VALID,0,VALID,97.1071,VALID,0,VALID,19.1388,VALID,156,VALID,0,
2013-01-31, 01:47:05,VALID,919.404,VALID,0,VALID,97.0918,VALID,0,VALID,19.1178,VALID,161,VALID,0,
2013-01-31, 01:48:05,VALID,919.38,VALID,0,VALID,97.1147,VALID,0,VALID,19.1583,VALID,168,VALID,0,
2013-01-31, 01:49:05,VALID,919.411,VALID,0,VALID,97.1071,VALID,0,VALID,19.1583,VALID,166,VALID,0,
2013-01-31, 01:50:05,VALID,919.393,VALID,0,VALID,97.0842,VALID,0,VALID,19.1193,VALID,167,VALID,0,
2013-01-31, 01:51:05,VALID,919.373,VALID,0,VALID,97.069,VALID,0,VALID,19.1583,VALID,147,VALID,0,
2013-01-31, 01:52:05,VALID,919.358,VALID,0,VALID,97.0766,VALID,0,VALID,19.1388,VALID,159,VALID,0,
2013-01-31, 01:53:05,VALID,919.333,VALID,0,VALID,97.0766,VALID,0,VALID,19.1388,VALID,156,VALID,0,
2013-01-31, 01:54:05,VALID,919.273,VALID,0,VALID,97.0918,VALID,0,VALID,19.1778,VALID,129,VALID,0,
2013-01-31, 01:55:05,VALID,919.231,VALID,0,VALID,97.0918,VALID,0,VALID,19.2182,VALID,136,VALID,0,
2013-01-31, 01:56:05,VALID,919.202,VALID,0,VALID,97.0918,VALID,0,VALID,19.1973,VALID,132,VALID,0,
2013-01-31, 01:57:05,VALID,919.227,VALID,0,VALID,97.0918,VALID,0,VALID,19.2168,VALID,170,VALID,0,
2013-01-31, 01:58:05,VALID,919.221,VALID,0,VALID,97.069,VALID,0,VALID,19.2168,VALID,182,VALID,0,
2013-01-31, 01:59:05,VALID,919.208,VALID,0,VALID,97.1071,VALID,0,VALID,19.2363,VALID,157,VALID,0,
2013-01-31, 02:00:05,VALID,919.255,VALID,0,VALID,97.0918,VALID,0,VALID,19.2558,VALID,162,VALID,0,
2013-01-31, 02:01:05,VALID,919.243,VALID,0,VALID,97.0766,VALID,0,VALID,19.2363,VALID,178,VALID,0,
2013-01-31, 02:02:05,VALID,919.251,VALID,0,VALID,97.0918,VALID,0,VALID,19.2558,VALID,177,VALID,0,
2013-01-31, 02:03:05,VALID,919.278,VALID,0,VALID,97.0613,VALID,0,VALID,19.2753,VALID,169,VALID,0,
2013-01-31, 02:04:05,VALID,919.285,VALID,0,VALID,97.0537,VALID,0,VALID,19.2948,VALID,184,VALID,0,
2013-01-31, 02:05:05,VALID,919.261,VALID,0,VALID,97.0461,VALID,0,VALID,19.2948,VALID,163,VALID,0,
2013-01-31, 02:06:05,VALID,919.313,VALID,0,VALID,97.0385,VALID,0,VALID,19.2558,VALID,170,VALID,0,
2013-01-31, 02:07:05,VALID,919.329,VALID,0,VALID,97.0461,VALID,0,VALID,19.2948,VALID,159,VALID,0,
2013-01-31, 02:08:05,VALID,919.306,VALID,0,VALID,97.0232,VALID,0.107441,VALID,19.2543,VALID,186,VALID,0,
2013-01-31, 02:09:05,VALID,919.306,VALID,0,VALID,97.0385,VALID,0,VALID,19.2753,VALID,176,VALID,0,
2013-01-31, 02:10:05,VALID,919.315,VALID,0,VALID,97.0003,VALID,0,VALID,19.2558,VALID,156,VALID,0,
2013-01-31, 02:11:05,VALID,919.329,VALID,0,VALID,97.008,VALID,0,VALID,19.2558,VALID,141,VALID,0,
2013-01-31, 02:12:05,VALID,919.303,VALID,0,VALID,96.9775,VALID,0,VALID,19.2348,VALID,139,VALID,0,
2013-01-31, 02:13:05,VALID,919.302,VALID,0,VALID,96.9851,VALID,0,VALID,19.2363,VALID,133,VALID,0,
2013-01-31, 02:14:05,VALID,919.307,VALID,0,VALID,96.9775,VALID,0,VALID,19.2363,VALID,128,VALID,0,
2013-01-31, 02:15:05,VALID,919.309,VALID,0,VALID,96.9698,VALID,0,VALID,19.2348,VALID,148,VALID,0,
2013-01-31, 02:16:05,VALID,919.337,VALID,0,VALID,96.9775,VALID,0,VALID,19.2363,VALID,168,VALID,0,
2013-01-31, 02:17:05,VALID,919.36,VALID,0,VALID,96.9698,VALID,0,VALID,19.2168,VALID,169,VALID,0,
2013-01-31, 02:18:05,VALID,919.399,VALID,0,VALID,96.9622,VALID,0,VALID,19.2168,VALID,172,VALID,0,
2013-01-31, 02:19:05,VALID,919.404,VALID,0,VALID,96.9546,VALID,0,VALID,19.2168,VALID,159,VALID,0,
2013-01-31, 02:20:05,VALID,919.383,VALID,0,VALID,96.947,VALID,0,VALID,19.1973,VALID,149,VALID,0,
2013-01-31, 02:21:05,VALID,919.399,VALID,0,VALID,96.9546,VALID,0,VALID,19.1973,VALID,186,VALID,0,
2013-01-31, 02:22:05,VALID,919.378,VALID,0,VALID,96.9394,VALID,0,VALID,19.1973,VALID,185,VALID,0,
2013-01-31, 02:23:05,VALID,919.425,VALID,0,VALID,96.947,VALID,0,VALID,19.1973,VALID,192,VALID,0,
2013-01-31, 02:24:05,VALID,919.426,VALID,0,VALID,96.9622,VALID,0,VALID,19.1973,VALID,171,VALID,0,
2013-01-31, 02:25:05,VALID,919.437,VALID,0,VALID,96.947,VALID,0,VALID,19.1568,VALID,169,VALID,0,
2013-01-31, 02:26:05,VALID,919.427,VALID,0,VALID,96.9317,VALID,0,VALID,19.1583,VALID,181,VALID,0,
2013-01-31, 02:27:05,VALID,919.423,VALID,0,VALID,96.9546,VALID,0,VALID,19.1778,VALID,188,VALID,0,
2013-01-31, 02:28:05,VALID,919.43,VALID,0,VALID,96.9546,VALID,0,VALID,19.1373,VALID,187,VALID,0,
2013-01-31, 02:29:05,VALID,919.422,VALID,0,VALID,96.9394,VALID,0,VALID,19.1583,VALID,191,VALID,0,
2013-01-31, 02:30:05,VALID,919.412,VALID,0,VALID,96.9394,VALID,0,VALID,19.1778,VALID,191,VALID,0,
2013-01-31, 02:31:05,VALID,919.383,VALID,0,VALID,96.9241,VALID,0,VALID,19.1373,VALID,151,VALID,0,
2013-01-31, 02:32:05,VALID,919.401,VALID,0,VALID,96.947,VALID,0,VALID,19.1583,VALID,167,VALID,0,
2013-01-31, 02:33:05,VALID,919.335,VALID,0,VALID,96.9317,VALID,0,VALID,19.1778,VALID,170,VALID,0,
2013-01-31, 02:34:05,VALID,919.346,VALID,0,VALID,96.9241,VALID,0,VALID,19.1778,VALID,191,VALID,0,
2013-01-31, 02:35:05,VALID,919.305,VALID,0,VALID,96.9317,VALID,0,VALID,19.1778,VALID,179,VALID,0,
2013-01-31, 02:36:05,VALID,919.297,VALID,0,VALID,96.9317,VALID,0,VALID,19.1973,VALID,136,VALID,0,
2013-01-31, 02:37:05,VALID,919.323,VALID,0,VALID,96.9241,VALID,0,VALID,19.2168,VALID,171,VALID,0,
2013-01-31, 02:38:05,VALID,919.283,VALID,0,VALID,96.9089,VALID,0,VALID,19.2168,VALID,189,VALID,0,
2013-01-31, 02:39:05,VALID,919.29,VALID,0,VALID,96.9012,VALID,0,VALID,19.2168,VALID,188,VALID,0,
2013-01-31, 02:40:05,VALID,919.29,VALID,0,VALID,96.886,VALID,0,VALID,19.1763,VALID,153,VALID,0,
2013-01-31, 02:41:05,VALID,919.28,VALID,0,VALID,96.8784,VALID,0,VALID,19.1778,VALID,153,VALID,0,
2013-01-31, 02:42:05,VALID,919.285,VALID,0,VALID,96.8707,VALID,0,VALID,19.1373,VALID,153,VALID,0,
2013-01-31, 02:43:05,VALID,919.272,VALID,0,VALID,96.8403,VALID,0,VALID,19.1178,VALID,153,VALID,0,
2013-01-31, 02:44:05,VALID,919.266,VALID,0,VALID,96.825,VALID,0,VALID,19.0983,VALID,149,VALID,0,
2013-01-31, 02:45:05,VALID,919.25,VALID,0,VALID,96.825,VALID,0,VALID,19.0983,VALID,127,VALID,0,
2013-01-31, 02:46:05,VALID,919.246,VALID,0,VALID,96.8098,VALID,0,VALID,19.0593,VALID,132,VALID,0,
2013-01-31, 02:47:05,VALID,919.221,VALID,0,VALID,96.7183,VALID,0,VALID,18.9828,VALID,101,VALID,0,
2013-01-31, 02:48:05,VALID,919.239,VALID,0,VALID,96.6573,VALID,0,VALID,18.8853,VALID,101,VALID,0,
2013-01-31, 02:49:05,VALID,919.285,VALID,0,VALID,96.6192,VALID,0,VALID,18.8268,VALID,101,VALID,0,
2013-01-31, 02:50:05,VALID,919.277,VALID,0,VALID,96.6344,VALID,0,VALID,18.7892,VALID,110,VALID,0,
2013-01-31, 02:51:05,VALID,919.293,VALID,0,VALID,96.6802,VALID,0,VALID,18.7892,VALID,133,VALID,0,
2013-01-31, 02:52:05,VALID,919.278,VALID,0,VALID,96.764,VALID,0,VALID,18.8867,VALID,110,VALID,0,
2013-01-31, 02:53:05,VALID,919.271,VALID,0,VALID,96.8555,VALID,0,VALID,18.9062,VALID,160,VALID,0,
2013-01-31, 02:54:05,VALID,919.302,VALID,0,VALID,96.8479,VALID,0,VALID,18.9257,VALID,155,VALID,0,
2013-01-31, 02:55:05,VALID,919.276,VALID,0,VALID,96.8784,VALID,0,VALID,18.9662,VALID,132,VALID,0,
2013-01-31, 02:56:05,VALID,919.274,VALID,0,VALID,96.8707,VALID,0,VALID,18.9452,VALID,169,VALID,0,
2013-01-31, 02:57:05,VALID,919.285,VALID,0,VALID,96.8707,VALID,0,VALID,18.9452,VALID,169,VALID,0,
2013-01-31, 02:58:05,VALID,919.273,VALID,0,VALID,96.886,VALID,0,VALID,18.9647,VALID,102,VALID,0,
2013-01-31, 02:59:05,VALID,919.272,VALID,0,VALID,96.8707,VALID,0,VALID,18.9452,VALID,102,VALID,0,
2013-01-31, 03:00:05,VALID,919.274,VALID,0,VALID,96.8555,VALID,0,VALID,18.9452,VALID,102,VALID,0,
2013-01-31, 03:01:05,VALID,919.266,VALID,0,VALID,96.8479,VALID,0,VALID,18.9452,VALID,102,VALID,0,
2013-01-31, 03:02:05,VALID,919.287,VALID,0,VALID,96.8403,VALID,0,VALID,18.9452,VALID,101,VALID,0,
2013-01-31, 03:03:05,VALID,919.274,VALID,0,VALID,96.8403,VALID,0,VALID,18.9243,VALID,102,VALID,0,
2013-01-31, 03:04:05,VALID,919.254,VALID,0,VALID,96.8174,VALID,0,VALID,18.9048,VALID,101,VALID,0,
2013-01-31, 03:05:05,VALID,919.272,VALID,0,VALID,96.764,VALID,0,VALID,18.8658,VALID,102,VALID,0,
2013-01-31, 03:06:05,VALID,919.247,VALID,0,VALID,96.7259,VALID,0,VALID,18.8268,VALID,101,VALID,0,
2013-01-31, 03:07:05,VALID,919.263,VALID,0,VALID,96.703,VALID,0,VALID,18.7878,VALID,102,VALID,0,
2013-01-31, 03:08:04,VALID,919.223,VALID,0,VALID,96.6725,VALID,0,VALID,18.7488,VALID,102,VALID,0,
2013-01-31, 03:09:04,VALID,919.216,VALID,0,VALID,96.6954,VALID,0,VALID,18.7683,VALID,101,VALID,0,
2013-01-31, 03:10:04,VALID,919.197,VALID,0,VALID,96.7183,VALID,0,VALID,18.7683,VALID,78,VALID,0,
2013-01-31, 03:11:04,VALID,919.172,VALID,0,VALID,96.7564,VALID,0,VALID,18.7878,VALID,73,VALID,0,
2013-01-31, 03:12:04,VALID,919.163,VALID,0,VALID,96.764,VALID,0,VALID,18.7683,VALID,73,VALID,0,
2013-01-31, 03:13:04,VALID,919.114,VALID,0,VALID,96.7564,VALID,0,VALID,18.7683,VALID,73,VALID,0,
2013-01-31, 03:14:04,VALID,919.13,VALID,0,VALID,96.7793,VALID,0,VALID,18.7683,VALID,73,VALID,0,
2013-01-31, 03:15:04,VALID,919.154,VALID,0,VALID,96.7564,VALID,0,VALID,18.7279,VALID,74,VALID,0,
2013-01-31, 03:16:04,VALID,919.133,VALID,0,VALID,96.7564,VALID,0,VALID,18.7474,VALID,82,VALID,0,
2013-01-31, 03:17:04,VALID,919.087,VALID,0,VALID,96.7945,VALID,0,VALID,18.7488,VALID,79,VALID,0,
2013-01-31, 03:18:04,VALID,919.113,VALID,0,VALID,96.7869,VALID,0,VALID,18.7683,VALID,79,VALID,0,
2013-01-31, 03:19:04,VALID,919.112,VALID,0,VALID,96.8098,VALID,0,VALID,18.7878,VALID,80,VALID,0,
2013-01-31, 03:20:04,VALID,919.087,VALID,0,VALID,96.8021,VALID,0,VALID,18.7488,VALID,80,VALID,0,
2013-01-31, 03:21:04,VALID,919.092,VALID,0,VALID,96.8403,VALID,0,VALID,18.7878,VALID,103,VALID,0,
2013-01-31, 03:22:04,VALID,919.059,VALID,0,VALID,96.8555,VALID,0,VALID,18.8073,VALID,107,VALID,0,
2013-01-31, 03:23:04,VALID,919.03,VALID,0,VALID,96.886,VALID,0,VALID,18.8463,VALID,107,VALID,0,
2013-01-31, 03:24:04,VALID,919.039,VALID,0,VALID,96.8936,VALID,0,VALID,18.8853,VALID,131,VALID,0,
2013-01-31, 03:25:04,VALID,919.04,VALID,0,VALID,96.8936,VALID,0,VALID,18.9048,VALID,134,VALID,0,
2013-01-31, 03:26:04,VALID,919.031,VALID,0,VALID,96.9012,VALID,0,VALID,18.8853,VALID,133,VALID,0,
2013-01-31, 03:27:04,VALID,919.04,VALID,0,VALID,96.8707,VALID,0,VALID,18.9048,VALID,142,VALID,0,
2013-01-31, 03:28:04,VALID,919.001,VALID,0,VALID,96.8479,VALID,0,VALID,18.8853,VALID,142,VALID,0,
2013-01-31, 03:29:04,VALID,919.021,VALID,0,VALID,96.8403,VALID,0,VALID,18.8449,VALID,142,VALID,0,
2013-01-31, 03:30:04,VALID,918.964,VALID,0,VALID,96.8326,VALID,0,VALID,18.8463,VALID,142,VALID,0,
2013-01-31, 03:31:04,VALID,918.977,VALID,0,VALID,96.8403,VALID,0,VALID,18.8463,VALID,142,VALID,0,
2013-01-31, 03:32:04,VALID,918.973,VALID,0,VALID,96.825,VALID,0,VALID,18.8463,VALID,142,VALID,0,
2013-01-31, 03:33:04,VALID,918.965,VALID,0,VALID,96.825,VALID,0,VALID,18.8254,VALID,142,VALID,0,
2013-01-31, 03:34:04,VALID,918.957,VALID,0,VALID,96.825,VALID,0,VALID,18.8254,VALID,142,VALID,0,
2013-01-31, 03:35:04,VALID,918.971,VALID,0,VALID,96.8326,VALID,0,VALID,18.8463,VALID,142,VALID,0,
2013-01-31, 03:36:04,VALID,918.953,VALID,0,VALID,96.8326,VALID,0,VALID,18.8268,VALID,142,VALID,0,
2013-01-31, 03:37:04,VALID,918.962,VALID,0,VALID,96.8326,VALID,0,VALID,18.8463,VALID,142,VALID,0,
2013-01-31, 03:38:04,VALID,918.981,VALID,0,VALID,96.8326,VALID,0,VALID,18.8463,VALID,142,VALID,0,
2013-01-31, 03:39:04,VALID,918.977,VALID,0,VALID,96.8326,VALID,0,VALID,18.8268,VALID,142,VALID,0,
2013-01-31, 03:40:04,VALID,918.968,VALID,0,VALID,96.8631,VALID,0,VALID,18.8463,VALID,142,VALID,0,
2013-01-31, 03:41:04,VALID,918.988,VALID,0,VALID,96.8707,VALID,0,VALID,18.8658,VALID,142,VALID,0,
2013-01-31, 03:42:04,VALID,918.966,VALID,0,VALID,96.8479,VALID,0.107441,VALID,18.8254,VALID,142,VALID,0,
2013-01-31, 03:43:04,VALID,918.959,VALID,0,VALID,96.8631,VALID,0.107441,VALID,18.8658,VALID,142,VALID,0,
2013-01-31, 03:44:04,VALID,918.963,VALID,0,VALID,96.8631,VALID,0,VALID,18.8658,VALID,142,VALID,0,
2013-01-31, 03:45:04,VALID,918.967,VALID,0,VALID,96.8631,VALID,0,VALID,18.8268,VALID,141,VALID,0,
2013-01-31, 03:46:04,VALID,918.96,VALID,0,VALID,96.8707,VALID,0.107441,VALID,18.8463,VALID,140,VALID,0,
2013-01-31, 03:47:04,VALID,918.933,VALID,0,VALID,96.8936,VALID,0,VALID,18.8644,VALID,135,VALID,0,
2013-01-31, 03:48:04,VALID,918.885,VALID,0,VALID,96.9089,VALID,0,VALID,18.8658,VALID,127,VALID,0,
2013-01-31, 03:49:04,VALID,918.889,VALID,0,VALID,96.9089,VALID,0,VALID,18.8658,VALID,117,VALID,0,
2013-01-31, 03:50:04,VALID,918.875,VALID,0,VALID,96.8936,VALID,0,VALID,18.8658,VALID,112,VALID,0,
2013-01-31, 03:51:04,VALID,918.855,VALID,0,VALID,96.9089,VALID,0,VALID,18.8658,VALID,124,VALID,0,
2013-01-31, 03:52:04,VALID,918.83,VALID,0,VALID,96.9165,VALID,0,VALID,18.9048,VALID,131,VALID,0,
2013-01-31, 03:53:04,VALID,918.791,VALID,0,VALID,96.9089,VALID,0,VALID,18.9438,VALID,123,VALID,0,
2013-01-31, 03:54:04,VALID,918.778,VALID,0,VALID,96.9241,VALID,0,VALID,18.9452,VALID,102,VALID,0,
2013-01-31, 03:55:04,VALID,918.749,VALID,0.2,VALID,96.8936,VALID,0,VALID,18.9257,VALID,116,VALID,0,
2013-01-31, 03:56:04,VALID,918.741,VALID,0,VALID,96.8707,VALID,0,VALID,18.8867,VALID,112,VALID,0,
2013-01-31, 03:57:04,VALID,918.72,VALID,0,VALID,96.8555,VALID,0,VALID,18.8672,VALID,114,VALID,0.164453,
2013-01-31, 03:58:04,VALID,918.715,VALID,0,VALID,96.8631,VALID,0,VALID,18.8672,VALID,125,VALID,0.00390625,
2013-01-31, 03:59:04,VALID,918.679,VALID,0,VALID,96.8403,VALID,0,VALID,18.8477,VALID,113,VALID,0,